Gulkana, AK

4:13 AM AKDT on July 28, 2017 (GMT -0800)
Gulkana

Weather History for PAGK - January, 2013

Change the Weather History Date:

Tuesday, January 22, 2013

  Actual Average Record
Temperature  
Mean Temperature 8 °F -  
Max Temperature 10 °F 6 °F 41 °F (1980)
Min Temperature 5 °F -10 °F -50 °F (1982)
Degree Days  
Heating Degree Days 58    
Moisture  
Dew Point 4 °F    
Average Humidity 84    
Maximum Humidity 92    
Minimum Humidity 75    
Precipitation  
Precipitation 0.03 in - - ()
Snow  
Snow 0.00 in - - ()
Snow Depth 8.00 in    
Sea Level Pressure  
Sea Level Pressure 29.81 in    
Wind  
Wind Speed 2 mph (North)    
Max Wind Speed 5 mph    
Max Gust Speed -    
Visibility 10 miles    
Events      
Averages and records for this station are not official NWS values.
T = Trace of Precipitation, MM = Missing Value Source: NWS Daily Summary

Daily Weather History Graph

Daily Weather History Graph

Search for Another Location

Airport or City:

Trip Planner

Search our weather history database for the weather conditions in past years. The results will help you decide how hot, cold, wet, or windy it might be!

Date:

Astronomy

Jan. 22, 2013 Rise Set
Actual Time 9:31 AM AKST 4:15 PM AKST
Civil Twilight 8:36 AM AKST 5:11 PM AKST
Nautical Twilight 7:39 AM AKST 6:08 PM AKST
Astronomical Twilight 6:46 AM AKST 7:01 PM AKST
Moon 12:27 PM AKST (1/22) 6:18 AM AKST (1/22)
Length of Visible Light 8h 35m
Length of Day
6h 44m
Waxing Gibbous, 84% of the Moon is Illuminated
Jan 22
Waxing Gibbous
Jan 26
Full
Feb 3
Last Quarter
Feb 9
New
Feb 17
First Quarter

Hourly Weather History & Observations

Time (AKST) Temp. Windchill Dew Point Humidity Pressure Visibility Wind Dir Wind Speed Gust Speed Precip Events Conditions
12:12 AM 6.1 °F -0.9 °F 3.0 °F 87% 29.86 in 10.0 mi North 3.5 mph - N/A   Overcast
12:53 AM 7.0 °F -1.7 °F 3.9 °F 87% 30.00 in 10.0 mi North 4.6 mph - N/A   Overcast
1:17 AM 6.1 °F -0.9 °F 3.0 °F 87% 29.84 in 10.0 mi North 3.5 mph - N/A   Overcast
1:53 AM 6.1 °F - 3.0 °F 87% 29.99 in 10.0 mi Calm Calm - N/A   Overcast
3:05 AM 7.0 °F 0.1 °F 3.0 °F 84% 29.81 in 10.0 mi NNW 3.5 mph - N/A   Overcast
3:21 AM 7.0 °F 0.1 °F 3.9 °F 87% 29.81 in 10.0 mi North 3.5 mph - N/A   Overcast
3:36 AM 6.1 °F -0.9 °F 3.0 °F 87% 29.80 in 10.0 mi North 3.5 mph - N/A   Overcast
3:53 AM 7.0 °F - 3.9 °F 87% 29.96 in 10.0 mi Calm Calm - N/A   Overcast
4:09 AM 6.1 °F -0.9 °F 3.0 °F 87% 29.80 in 10.0 mi North 3.5 mph - N/A   Overcast
4:30 AM 7.0 °F - 3.9 °F 87% 29.79 in 10.0 mi Calm Calm - N/A   Overcast
4:53 AM 7.0 °F - 3.0 °F 84% 29.94 in 10.0 mi Calm Calm - N/A   Overcast
5:53 AM 7.0 °F - 3.0 °F 84% 29.92 in 10.0 mi Calm Calm - N/A   Overcast
5:57 AM 7.0 °F - 3.0 °F 84% 29.77 in 10.0 mi Calm Calm - N/A   Overcast
6:53 AM 5.0 °F - 1.9 °F 87% 29.91 in 10.0 mi Calm Calm - N/A   Overcast
7:53 AM 5.0 °F - 1.9 °F 87% 29.91 in 10.0 mi Calm Calm - N/A   Overcast
8:53 AM 6.1 °F - 1.9 °F 83% 29.90 in 10.0 mi Calm Calm - N/A   Mostly Cloudy
9:53 AM 6.1 °F - 1.0 °F 80% 29.90 in 10.0 mi Calm Calm - N/A   Overcast
10:53 AM 7.0 °F - 1.9 °F 80% 29.88 in 10.0 mi Calm Calm - N/A   Overcast
11:53 AM 7.0 °F 0.1 °F 3.0 °F 84% 29.87 in 10.0 mi North 3.5 mph - N/A   Overcast
12:53 PM 7.0 °F - 3.0 °F 84% 29.86 in 10.0 mi Calm Calm - N/A   Mostly Cloudy
1:53 PM 9.0 °F - 5.0 °F 84% 29.84 in 10.0 mi Calm Calm - N/A   Mostly Cloudy
2:53 PM 8.1 °F - 3.9 °F 83% 29.81 in 10.0 mi Calm Calm - N/A   Mostly Cloudy
3:53 PM 5.0 °F - 3.0 °F 92% 29.80 in 10.0 mi Calm Calm - N/A   Mostly Cloudy
4:53 PM 5.0 °F - 1.9 °F 87% 29.78 in 10.0 mi Calm Calm - N/A   Mostly Cloudy
5:53 PM 6.1 °F - 3.0 °F 87% 29.77 in 10.0 mi Calm Calm - N/A   Mostly Cloudy
6:53 PM 8.1 °F - 5.0 °F 87% 29.75 in 10.0 mi Calm Calm - N/A   Overcast
7:53 PM 8.1 °F - 5.0 °F 87% 29.74 in 10.0 mi Calm Calm - N/A   Overcast
8:53 PM 9.0 °F 2.4 °F 5.0 °F 84% 29.72 in 10.0 mi North 3.5 mph - N/A   Overcast
9:26 PM 9.0 °F 0.6 °F 5.0 °F 84% 29.55 in 10.0 mi North 4.6 mph - N/A   Overcast
9:53 PM 9.0 °F - 6.1 °F 88% 29.71 in 10.0 mi Calm Calm - N/A   Overcast
10:17 PM 9.0 °F - 5.0 °F 84% 29.56 in 10.0 mi Calm Calm - N/A   Overcast
10:38 PM 9.0 °F - 5.0 °F 84% 29.55 in 10.0 mi Calm Calm - N/A   Overcast
10:53 PM 9.0 °F - 6.1 °F 88% 29.70 in 10.0 mi Calm Calm - N/A   Overcast
11:53 PM 10.0 °F - 6.1 °F 84% 29.69 in 10.0 mi Calm Calm - N/A   Overcast